Tracking 28790 objects as of 19-Apr-2024
HD Live streaming from Space Station
objects crossing your sky now

COSMOS 1691 DEB

Track COSMOS 1691 DEB now!
10-day predictions


NORAD ID: 16271
Int'l Code: 1985-094Q
Perigee: 1,412.5 km
Apogee: 1,422.9 km
Inclination: 82.6 °
Period: 114.0 minutes
Semi major axis: 7788 km
RCS: 0.0137 m2 (small)
Launch date: October 9, 1985
Source: Commonwealth of Independent States (former USSR) (CIS)
Launch site: PLESETSK MISSILE AND SPACE COMPLEX (PKMTR)

Note: This is SATELLITE DEBRIS
Your satellite tracking list
Your tracking list is empty




NASA's NSSDC Master Catalog

Two Line Element Set (TLE):
1 16271U 85094Q   24107.65439694  .00000033  00000-0  12077-3 0  9999
2 16271  82.6082  58.1172 0006625 122.7508  52.5073 12.63004761775587
Source of the keplerian elements: AFSPC